Time,TemperatureF,DewpointF,PressureIn,WindDirection,WindDirectionDegrees,WindSpeedMPH,WindSpeedGustMPH,Humidity,HourlyPrecipIn,Conditions,Clouds,dailyrainin,SolarRadiationWatts/m^2,SoftwareType,DateUTC
2013-03-18 00:00:00,35.6,32.7,29.94,East,98,5.0,10.0,89,0.03,,---,0.04,0.00,VWS V14.01,2013-03-18 05:00:00,
2013-03-18 00:05:00,35.6,32.7,29.94,ENE,78,3.0,10.0,89,0.02,,---,0.00,0.00,VWS V14.01,2013-03-18 05:05:00,
2013-03-18 00:10:00,35.7,32.8,29.93,ENE,72,6.0,12.0,89,0.02,,---,0.00,0.00,VWS V14.01,2013-03-18 05:10:00,
2013-03-18 00:15:00,35.7,32.8,29.92,East,82,8.0,13.0,89,0.02,,---,0.00,0.00,VWS V14.01,2013-03-18 05:15:00,
2013-03-18 00:20:00,35.6,32.7,29.93,ESE,116,1.0,9.0,89,0.01,,---,0.00,0.00,VWS V14.01,2013-03-18 05:20:00,
2013-03-18 00:25:00,35.7,32.8,29.92,ENE,75,5.0,11.0,89,0.01,,---,0.00,0.00,VWS V14.01,2013-03-18 05:25:00,
2013-03-18 00:30:00,35.7,32.8,29.91,ENE,68,8.0,12.0,89,0.01,,---,0.00,0.00,VWS V14.01,2013-03-18 05:30:00,
2013-03-18 00:35:00,35.7,32.8,29.91,ENE,77,5.0,15.0,89,0.01,,---,0.00,0.00,VWS V14.01,2013-03-18 05:35:00,
2013-03-18 00:40:00,35.7,32.8,29.91,SE,128,12.0,14.0,89,0.01,,---,0.00,0.00,VWS V14.01,2013-03-18 05:40:00,
2013-03-18 00:45:00,35.7,32.8,29.90,East,101,2.0,13.0,89,0.01,,---,0.00,0.00,VWS V14.01,2013-03-18 05:45:00,
2013-03-18 00:50:00,35.6,32.7,29.90,East,98,5.0,11.0,89,0.00,,---,0.00,0.00,VWS V14.01,2013-03-18 05:50:00,
2013-03-18 00:55:00,35.6,32.7,29.90,East,98,6.0,15.0,89,0.00,,---,0.00,0.00,VWS V14.01,2013-03-18 05:55:00,
2013-03-18 01:00:00,35.5,32.6,29.89,ESE,119,5.0,17.0,89,0.00,,---,0.00,0.00,VWS V14.01,2013-03-18 06:00:00,
2013-03-18 01:05:00,35.5,32.6,29.89,East,91,6.0,13.0,89,0.00,,---,0.00,0.00,VWS V14.01,2013-03-18 06:05:00,
2013-03-18 01:10:00,35.5,32.6,29.89,East,84,2.0,12.0,89,0.00,,---,0.00,0.00,VWS V14.01,2013-03-18 06:10:00,
2013-03-18 01:15:00,35.5,32.6,29.89,East,100,4.0,10.0,89,0.00,,---,0.00,0.00,VWS V14.01,2013-03-18 06:15:00,
2013-03-18 01:20:00,35.5,32.6,29.89,East,79,6.0,14.0,89,0.00,,---,0.00,0.00,VWS V14.01,2013-03-18 06:20:00,
2013-03-18 01:25:00,35.5,32.6,29.89,East,97,6.0,12.0,89,0.00,,---,0.00,0.00,VWS V14.01,2013-03-18 06:25:00,
2013-03-18 01:30:00,35.4,32.5,29.89,East,96,3.0,11.0,89,0.00,,---,0.00,0.00,VWS V14.01,2013-03-18 06:30:00,
2013-03-18 01:35:00,35.4,32.5,29.89,ENE,78,3.0,6.0,89,0.00,,---,0.00,0.00,VWS V14.01,2013-03-18 06:35:00,
2013-03-18 01:40:00,35.4,32.5,29.89,ESE,107,3.0,9.0,89,0.00,,---,0.00,0.00,VWS V14.01,2013-03-18 06:40:00,
2013-03-18 01:45:00,35.4,32.5,29.89,ENE,76,3.0,8.0,89,0.00,,---,0.00,0.00,VWS V14.01,2013-03-18 06:45:00,
2013-03-18 01:50:00,35.4,32.5,29.90,ENE,65,0.0,7.0,89,0.00,,---,0.00,0.00,VWS V14.01,2013-03-18 06:50:00,
2013-03-18 01:55:00,35.4,32.5,29.90,NE,56,0.0,9.0,89,0.00,,---,0.00,0.00,VWS V14.01,2013-03-18 06:55:00,
2013-03-18 02:00:00,35.4,32.5,29.90,NE,55,0.0,7.0,89,0.00,,---,0.00,0.00,VWS V14.01,2013-03-18 07:00:00,
2013-03-18 02:05:00,35.4,32.5,29.90,ENE,67,0.0,7.0,89,0.00,,---,0.00,0.00,VWS V14.01,2013-03-18 07:05:00,
2013-03-18 02:10:00,35.4,32.5,29.90,ENE,59,0.0,7.0,89,0.00,,---,0.00,0.00,VWS V14.01,2013-03-18 07:10:00,
2013-03-18 02:15:00,35.4,32.5,29.90,East,87,3.0,7.0,89,0.00,,---,0.00,0.00,VWS V14.01,2013-03-18 07:15:00,
2013-03-18 02:20:00,35.4,32.5,29.89,ENE,72,0.0,7.0,89,0.00,,---,0.00,0.00,VWS V14.01,2013-03-18 07:20:00,
2013-03-18 02:25:00,35.4,32.5,29.89,ENE,62,0.0,6.0,89,0.00,,---,0.00,0.00,VWS V14.01,2013-03-18 07:25:00,
2013-03-18 02:30:00,35.4,32.5,29.89,East,86,4.0,6.0,89,0.00,,---,0.00,0.00,VWS V14.01,2013-03-18 07:30:00,
2013-03-18 02:35:00,35.3,32.4,29.89,East,85,0.0,5.0,89,0.01,,---,0.01,0.00,VWS V14.01,2013-03-18 07:35:00,
2013-03-18 02:39:00,35.3,32.4,29.89,East,85,0.0,3.0,89,0.01,,---,0.01,0.00,VWS V14.01,2013-03-18 07:39:00,
2013-03-18 02:44:00,35.3,32.7,29.89,East,84,0.0,3.0,90,0.01,,---,0.01,0.00,VWS V14.01,2013-03-18 07:44:00,
2013-03-18 02:49:00,35.3,32.7,29.89,East,84,0.0,2.0,90,0.01,,---,0.01,0.00,VWS V14.01,2013-03-18 07:49:00,
2013-03-18 02:55:00,35.2,32.6,29.89,ENE,61,0.0,6.0,90,0.01,,---,0.01,0.00,VWS V14.01,2013-03-18 07:55:00,
2013-03-18 02:59:00,35.2,32.6,29.88,ENE,61,0.0,0.0,90,0.01,,---,0.01,0.00,VWS V14.01,2013-03-18 07:59:00,
2013-03-18 03:04:00,35.1,32.5,29.88,ENE,61,0.0,2.0,90,0.02,,---,0.02,0.00,VWS V14.01,2013-03-18 08:04:00,
2013-03-18 03:09:00,35.1,32.5,29.88,ENE,64,0.0,4.0,90,0.02,,---,0.02,0.00,VWS V14.01,2013-03-18 08:09:00,
2013-03-18 03:14:00,35.1,32.5,29.87,ENE,64,0.0,0.0,90,0.02,,---,0.02,0.00,VWS V14.01,2013-03-18 08:14:00,
2013-03-18 03:19:00,35.1,32.5,29.87,ENE,64,0.0,2.0,90,0.02,,---,0.02,0.00,VWS V14.01,2013-03-18 08:19:00,
2013-03-18 03:24:00,35.1,32.5,29.88,ENE,65,0.0,3.0,90,0.02,,---,0.02,0.00,VWS V14.01,2013-03-18 08:24:00,
2013-03-18 03:29:00,35.1,32.5,29.87,ENE,66,0.0,4.0,90,0.03,,---,0.03,0.00,VWS V14.01,2013-03-18 08:29:00,
2013-03-18 03:34:00,35.1,32.5,29.87,ENE,66,0.0,0.0,90,0.03,,---,0.03,0.00,VWS V14.01,2013-03-18 08:34:00,
2013-03-18 03:39:00,35.0,32.4,29.87,ENE,66,0.0,0.0,90,0.02,,---,0.03,0.00,VWS V14.01,2013-03-18 08:39:00,
2013-03-18 03:44:00,35.0,32.4,29.87,ENE,65,0.0,0.0,90,0.02,,---,0.03,0.00,VWS V14.01,2013-03-18 08:44:00,
2013-03-18 03:49:00,35.0,32.6,29.86,ENE,65,0.0,0.0,91,0.02,,---,0.03,0.00,VWS V14.01,2013-03-18 08:49:00,
2013-03-18 03:54:00,35.0,32.6,29.86,ENE,65,0.0,4.0,91,0.02,,---,0.03,0.00,VWS V14.01,2013-03-18 08:54:00,
2013-03-18 03:59:00,34.9,32.5,29.85,ENE,75,3.0,5.0,91,0.02,,---,0.03,0.00,VWS V14.01,2013-03-18 08:59:00,
2013-03-18 04:04:00,34.9,32.3,29.85,ENE,74,0.0,3.0,90,0.02,,---,0.03,0.00,VWS V14.01,2013-03-18 09:04:00,
2013-03-18 04:09:00,34.9,32.5,29.85,ENE,74,0.0,4.0,91,0.01,,---,0.03,0.00,VWS V14.01,2013-03-18 09:09:00,
2013-03-18 04:14:00,34.9,32.5,29.85,ENE,75,0.0,3.0,91,0.01,,---,0.03,0.00,VWS V14.01,2013-03-18 09:14:00,
2013-03-18 04:19:00,34.8,32.5,29.85,ENE,74,0.0,4.0,91,0.01,,---,0.03,0.00,VWS V14.01,2013-03-18 09:19:00,
2013-03-18 04:24:00,34.8,32.5,29.85,ENE,74,0.0,3.0,91,0.01,,---,0.03,0.00,VWS V14.01,2013-03-18 09:24:00,
2013-03-18 04:29:00,34.8,32.5,29.85,ENE,74,0.0,0.0,91,0.01,,---,0.03,0.00,VWS V14.01,2013-03-18 09:29:00,
2013-03-18 04:34:00,34.8,32.5,29.85,ENE,75,0.0,4.0,91,0.00,,---,0.03,0.00,VWS V14.01,2013-03-18 09:34:00,
2013-03-18 04:39:00,34.8,32.5,29.85,ENE,75,0.0,1.0,91,0.00,,---,0.03,0.00,VWS V14.01,2013-03-18 09:39:00,
2013-03-18 04:44:00,34.7,32.3,29.85,ENE,75,0.0,0.0,91,0.01,,---,0.04,0.00,VWS V14.01,2013-03-18 09:44:00,
2013-03-18 04:49:00,34.8,32.5,29.85,ENE,75,0.0,0.0,91,0.01,,---,0.04,0.00,VWS V14.01,2013-03-18 09:49:00,
2013-03-18 04:54:00,34.8,32.5,29.85,ENE,75,0.0,0.0,91,0.01,,---,0.04,0.00,VWS V14.01,2013-03-18 09:54:00,
2013-03-18 04:59:00,34.8,32.5,29.85,ENE,75,0.0,1.0,91,0.01,,---,0.04,0.00,VWS V14.01,2013-03-18 09:59:00,
2013-03-18 05:04:00,34.7,32.3,29.84,ENE,75,0.0,0.0,91,0.01,,---,0.04,0.00,VWS V14.01,2013-03-18 10:04:00,
2013-03-18 05:09:00,34.8,32.5,29.84,ENE,75,0.0,0.0,91,0.01,,---,0.04,0.00,VWS V14.01,2013-03-18 10:09:00,
2013-03-18 05:14:00,34.8,32.5,29.84,ENE,75,0.0,0.0,91,0.01,,---,0.04,0.00,VWS V14.01,2013-03-18 10:14:00,
2013-03-18 05:19:00,34.7,32.3,29.84,ENE,75,0.0,3.0,91,0.01,,---,0.04,0.00,VWS V14.01,2013-03-18 10:19:00,
2013-03-18 05:24:00,34.7,32.3,29.84,ENE,75,0.0,0.0,91,0.01,,---,0.04,0.00,VWS V14.01,2013-03-18 10:24:00,
2013-03-18 05:29:00,34.7,32.3,29.84,ENE,75,0.0,0.0,91,0.01,,---,0.04,0.00,VWS V14.01,2013-03-18 10:29:00,
2013-03-18 05:34:00,34.7,32.3,29.84,ENE,75,0.0,0.0,91,0.01,,---,0.04,0.00,VWS V14.01,2013-03-18 10:34:00,
2013-03-18 05:39:00,34.7,32.3,29.84,ENE,75,0.0,0.0,91,0.01,,---,0.04,0.00,VWS V14.01,2013-03-18 10:39:00,
2013-03-18 05:44:00,34.7,32.3,29.83,ENE,75,0.0,0.0,91,0.01,,---,0.04,0.00,VWS V14.01,2013-03-18 10:44:00,
2013-03-18 05:49:00,34.7,32.3,29.83,ENE,75,0.0,3.0,91,0.00,,---,0.04,0.00,VWS V14.01,2013-03-18 10:49:00,
2013-03-18 05:54:00,34.8,32.5,29.82,ENE,75,3.0,3.0,91,0.00,,---,0.04,0.00,VWS V14.01,2013-03-18 10:54:00,
2013-03-18 05:59:00,34.7,32.3,29.82,ENE,75,0.0,3.0,91,0.00,,---,0.04,0.00,VWS V14.01,2013-03-18 10:59:00,
2013-03-18 06:04:00,34.7,32.3,29.82,ENE,75,2.0,2.0,91,0.00,,---,0.04,0.00,VWS V14.01,2013-03-18 11:04:00,
2013-03-18 06:09:00,34.7,32.3,29.82,ENE,74,2.0,3.0,91,0.00,,---,0.04,0.00,VWS V14.01,2013-03-18 11:09:00,
2013-03-18 06:14:00,34.7,32.3,29.83,ENE,74,0.0,0.0,91,0.00,,---,0.04,0.00,VWS V14.01,2013-03-18 11:14:00,
2013-03-18 06:19:00,34.7,32.3,29.83,ENE,74,0.0,0.0,91,0.00,,---,0.04,0.00,VWS V14.01,2013-03-18 11:19:00,
2013-03-18 06:24:00,34.7,32.3,29.83,ENE,74,0.0,0.0,91,0.00,,---,0.04,0.00,VWS V14.01,2013-03-18 11:24:00,
2013-03-18 06:29:00,34.7,32.3,29.84,ENE,74,0.0,0.0,91,0.00,,---,0.04,0.00,VWS V14.01,2013-03-18 11:29:00,
2013-03-18 06:34:00,34.7,32.3,29.84,ENE,74,0.0,0.0,91,0.00,,---,0.04,0.00,VWS V14.01,2013-03-18 11:34:00,
2013-03-18 06:39:00,34.8,32.7,29.85,ENE,74,0.0,0.0,92,0.00,,---,0.04,0.00,VWS V14.01,2013-03-18 11:39:00,
2013-03-18 06:44:00,34.8,32.7,29.85,ENE,74,0.0,0.0,92,0.00,,---,0.04,0.00,VWS V14.01,2013-03-18 11:44:00,
2013-03-18 06:49:00,34.8,32.7,29.85,ENE,74,0.0,0.0,92,0.00,,---,0.04,0.00,VWS V14.01,2013-03-18 11:49:00,
2013-03-18 06:54:00,34.8,32.7,29.85,ENE,74,0.0,0.0,92,0.00,,---,0.04,0.00,VWS V14.01,2013-03-18 11:54:00,
2013-03-18 06:59:00,34.9,32.8,29.85,ENE,74,0.0,0.0,92,0.00,,---,0.04,0.00,VWS V14.01,2013-03-18 11:59:00,
2013-03-18 07:04:00,35.1,33.0,29.85,ENE,74,0.0,0.0,92,0.00,,---,0.04,0.00,VWS V14.01,2013-03-18 12:04:00,
2013-03-18 07:09:00,35.2,33.1,29.85,ENE,74,0.0,0.0,92,0.00,,---,0.04,0.00,VWS V14.01,2013-03-18 12:09:00,
2013-03-18 07:14:00,35.4,33.3,29.85,ENE,74,0.0,0.0,92,0.00,,---,0.04,0.00,VWS V14.01,2013-03-18 12:14:00,
2013-03-18 07:19:00,35.5,33.4,29.85,ENE,74,0.0,0.0,92,0.00,,---,0.04,0.00,VWS V14.01,2013-03-18 12:19:00,
2013-03-18 07:24:00,35.4,33.3,29.85,ENE,74,0.0,0.0,92,0.00,,---,0.04,0.00,VWS V14.01,2013-03-18 12:24:00,
2013-03-18 07:29:00,35.3,33.2,29.86,ENE,74,0.0,0.0,92,0.00,,---,0.04,0.00,VWS V14.01,2013-03-18 12:29:00,
2013-03-18 07:34:00,35.2,33.1,29.86,ENE,74,0.0,0.0,92,0.00,,---,0.04,0.00,VWS V14.01,2013-03-18 12:34:00,
2013-03-18 07:39:00,35.2,33.1,29.86,ENE,74,0.0,0.0,92,0.00,,---,0.04,5.00,VWS V14.01,2013-03-18 12:39:00,
2013-03-18 07:44:00,35.1,33.0,29.86,ENE,74,0.0,0.0,92,0.00,,---,0.04,7.00,VWS V14.01,2013-03-18 12:44:00,
2013-03-18 07:49:00,35.1,33.0,29.86,ENE,74,0.0,0.0,92,0.00,,---,0.04,7.00,VWS V14.01,2013-03-18 12:49:00,
2013-03-18 07:54:00,35.1,33.0,29.86,ENE,74,0.0,0.0,92,0.00,,---,0.04,9.00,VWS V14.01,2013-03-18 12:54:00,
2013-03-18 07:59:00,35.1,33.0,29.86,ENE,74,0.0,0.0,92,0.00,,---,0.04,16.00,VWS V14.01,2013-03-18 12:59:00,
2013-03-18 08:04:00,35.1,33.0,29.86,ENE,74,0.0,0.0,92,0.00,,---,0.04,12.00,VWS V14.01,2013-03-18 13:04:00,
2013-03-18 08:09:00,35.1,33.0,29.85,ENE,74,0.0,0.0,92,0.00,,---,0.04,21.00,VWS V14.01,2013-03-18 13:09:00,
2013-03-18 08:14:00,35.2,33.1,29.85,ENE,74,0.0,0.0,92,0.00,,---,0.04,19.00,VWS V14.01,2013-03-18 13:14:00,
2013-03-18 08:19:00,35.2,33.1,29.85,ENE,74,0.0,0.0,92,0.00,,---,0.04,21.00,VWS V14.01,2013-03-18 13:19:00,
2013-03-18 08:24:00,35.2,33.1,29.85,ENE,74,0.0,0.0,92,0.00,,---,0.04,39.00,VWS V14.01,2013-03-18 13:24:00,
2013-03-18 08:29:00,35.3,33.2,29.85,ENE,74,0.0,1.0,92,0.00,,---,0.04,47.00,VWS V14.01,2013-03-18 13:29:00,
2013-03-18 08:34:00,35.4,33.3,29.84,ENE,74,0.0,0.0,92,0.00,,---,0.04,47.00,VWS V14.01,2013-03-18 13:34:00,
2013-03-18 08:39:00,35.4,33.3,29.85,ENE,74,0.0,0.0,92,0.00,,---,0.04,44.00,VWS V14.01,2013-03-18 13:39:00,
2013-03-18 08:44:00,35.4,33.3,29.84,ENE,74,0.0,0.0,92,0.00,,---,0.04,33.00,VWS V14.01,2013-03-18 13:44:00,
2013-03-18 08:49:00,35.5,33.4,29.84,ENE,74,0.0,0.0,92,0.00,,---,0.04,40.00,VWS V14.01,2013-03-18 13:49:00,
2013-03-18 08:54:00,35.5,33.4,29.85,ENE,74,0.0,1.0,92,0.00,,---,0.04,35.00,VWS V14.01,2013-03-18 13:54:00,
2013-03-18 08:59:00,35.5,33.4,29.85,ENE,74,3.0,4.0,92,0.00,,---,0.04,33.00,VWS V14.01,2013-03-18 13:59:00,
2013-03-18 09:04:00,35.6,33.5,29.85,ENE,76,1.0,5.0,92,0.00,,---,0.04,30.00,VWS V14.01,2013-03-18 14:04:00,
2013-03-18 09:09:00,35.6,33.5,29.85,ENE,71,1.0,3.0,92,0.00,,---,0.04,42.00,VWS V14.01,2013-03-18 14:09:00,
2013-03-18 09:14:00,35.6,33.5,29.85,NW,309,0.0,4.0,92,0.00,,---,0.04,46.00,VWS V14.01,2013-03-18 14:14:00,
2013-03-18 09:19:00,35.6,33.5,29.85,NW,309,2.0,3.0,92,0.00,,---,0.04,42.00,VWS V14.01,2013-03-18 14:19:00,
2013-03-18 09:24:00,35.7,33.6,29.86,West,275,0.0,4.0,92,0.00,,---,0.04,37.00,VWS V14.01,2013-03-18 14:24:00,
2013-03-18 09:29:00,35.7,33.6,29.86,West,278,3.0,4.0,92,0.00,,---,0.04,47.00,VWS V14.01,2013-03-18 14:29:00,
2013-03-18 09:34:00,35.7,33.6,29.86,West,279,2.0,4.0,92,0.00,,---,0.04,67.00,VWS V14.01,2013-03-18 14:34:00,
2013-03-18 09:39:00,35.8,33.7,29.86,West,275,4.0,4.0,92,0.00,,---,0.04,32.00,VWS V14.01,2013-03-18 14:39:00,
2013-03-18 09:44:00,35.8,33.7,29.86,West,267,3.0,5.0,92,0.00,,---,0.04,42.00,VWS V14.01,2013-03-18 14:44:00,
2013-03-18 09:49:00,35.8,33.7,29.86,West,273,3.0,3.0,92,0.00,,---,0.04,74.00,VWS V14.01,2013-03-18 14:49:00,
2013-03-18 09:54:00,35.9,33.8,29.86,West,272,4.0,4.0,92,0.00,,---,0.04,69.00,VWS V14.01,2013-03-18 14:54:00,
2013-03-18 09:59:00,36.0,33.9,29.85,West,260,1.0,5.0,92,0.00,,---,0.04,90.00,VWS V14.01,2013-03-18 14:59:00,
2013-03-18 10:04:00,36.0,33.9,29.86,West,271,5.0,6.0,92,0.00,,---,0.04,69.00,VWS V14.01,2013-03-18 15:04:00,
2013-03-18 10:09:00,36.1,34.0,29.87,WSW,253,6.0,6.0,92,0.00,,---,0.04,40.00,VWS V14.01,2013-03-18 15:09:00,
2013-03-18 10:14:00,36.2,34.1,29.86,WSW,257,0.0,5.0,92,0.00,,---,0.04,70.00,VWS V14.01,2013-03-18 15:14:00,
2013-03-18 10:19:00,36.3,34.2,29.86,WSW,258,4.0,6.0,92,0.00,,---,0.04,95.00,VWS V14.01,2013-03-18 15:19:00,
2013-03-18 10:24:00,36.3,34.2,29.86,WSW,248,7.0,13.0,92,0.00,,---,0.04,72.00,VWS V14.01,2013-03-18 15:24:00,
2013-03-18 10:29:00,36.4,34.3,29.87,WSW,258,3.0,12.0,92,0.00,,---,0.04,58.00,VWS V14.01,2013-03-18 15:29:00,
2013-03-18 10:34:00,36.4,34.3,29.86,WNW,286,4.0,5.0,92,0.00,,---,0.04,70.00,VWS V14.01,2013-03-18 15:34:00,
2013-03-18 10:39:00,36.5,34.7,29.87,West,273,6.0,8.0,93,0.00,,---,0.04,67.00,VWS V14.01,2013-03-18 15:39:00,
2013-03-18 10:44:00,36.6,34.5,29.87,West,271,4.0,9.0,92,0.00,,---,0.04,42.00,VWS V14.01,2013-03-18 15:44:00,
2013-03-18 10:49:00,36.6,34.5,29.87,WSW,248,6.0,7.0,92,0.00,,---,0.04,81.00,VWS V14.01,2013-03-18 15:49:00,
2013-03-18 10:54:00,36.7,34.6,29.88,WSW,249,7.0,11.0,92,0.00,,---,0.04,60.00,VWS V14.01,2013-03-18 15:54:00,
2013-03-18 10:59:00,36.8,34.7,29.88,WSW,252,6.0,10.0,92,0.00,,---,0.04,127.00,VWS V14.01,2013-03-18 15:59:00,
2013-03-18 11:04:00,36.9,34.8,29.87,WSW,255,3.0,11.0,92,0.00,,---,0.04,158.00,VWS V14.01,2013-03-18 16:04:00,
2013-03-18 11:09:00,37.2,35.1,29.87,West,274,4.0,7.0,92,0.00,,---,0.04,211.00,VWS V14.01,2013-03-18 16:09:00,
2013-03-18 11:14:00,37.5,35.7,29.87,WNW,286,3.0,7.0,93,0.00,,---,0.04,227.00,VWS V14.01,2013-03-18 16:14:00,
2013-03-18 11:19:00,37.7,35.6,29.87,WNW,283,3.0,10.0,92,0.00,,---,0.04,202.00,VWS V14.01,2013-03-18 16:19:00,
2013-03-18 11:24:00,37.9,36.1,29.87,WNW,283,4.0,12.0,93,0.00,,---,0.04,113.00,VWS V14.01,2013-03-18 16:24:00,
2013-03-18 11:29:00,38.0,35.9,29.87,WSW,256,8.0,12.0,92,0.00,,---,0.04,90.00,VWS V14.01,2013-03-18 16:29:00,
2013-03-18 11:34:00,38.0,35.9,29.87,West,268,4.0,11.0,92,0.00,,---,0.04,97.00,VWS V14.01,2013-03-18 16:34:00,
2013-03-18 11:39:00,38.1,36.0,29.87,West,263,3.0,8.0,92,0.00,,---,0.04,111.00,VWS V14.01,2013-03-18 16:39:00,
2013-03-18 11:44:00,38.2,36.1,29.87,West,276,4.0,12.0,92,0.00,,---,0.04,111.00,VWS V14.01,2013-03-18 16:44:00,
2013-03-18 11:49:00,38.3,36.2,29.87,WNW,296,1.0,8.0,92,0.00,,---,0.04,113.00,VWS V14.01,2013-03-18 16:49:00,
2013-03-18 11:54:00,38.4,36.0,29.87,West,273,5.0,7.0,91,0.00,,---,0.04,107.00,VWS V14.01,2013-03-18 16:54:00,
2013-03-18 11:59:00,38.6,36.2,29.88,WNW,290,3.0,8.0,91,0.00,,---,0.04,90.00,VWS V14.01,2013-03-18 16:59:00,
2013-03-18 12:04:00,38.7,36.3,29.87,West,265,10.0,10.0,91,0.00,,---,0.04,149.00,VWS V14.01,2013-03-18 17:04:00,
2013-03-18 12:09:00,38.8,36.4,29.88,West,280,4.0,13.0,91,0.00,,---,0.04,179.00,VWS V14.01,2013-03-18 17:09:00,
2013-03-18 12:14:00,39.1,36.7,29.88,West,273,6.0,8.0,91,0.00,,---,0.04,134.00,VWS V14.01,2013-03-18 17:14:00,
2013-03-18 12:19:00,39.3,36.9,29.88,WNW,287,4.0,14.0,91,0.00,,---,0.04,169.00,VWS V14.01,2013-03-18 17:19:00,
2013-03-18 12:24:00,39.5,36.8,29.88,WNW,292,3.0,11.0,90,0.00,,---,0.04,151.00,VWS V14.01,2013-03-18 17:24:00,
2013-03-18 12:29:00,39.7,37.0,29.88,West,277,3.0,9.0,90,0.00,,---,0.04,151.00,VWS V14.01,2013-03-18 17:29:00,
2013-03-18 12:34:00,39.9,36.9,29.88,NW,319,11.0,12.0,89,0.00,,---,0.04,162.00,VWS V14.01,2013-03-18 17:34:00,
2013-03-18 12:39:00,40.1,37.1,29.88,West,264,5.0,9.0,89,0.00,,---,0.04,176.00,VWS V14.01,2013-03-18 17:39:00,
2013-03-18 12:44:00,40.3,37.0,29.88,West,277,6.0,14.0,88,0.00,,---,0.04,285.00,VWS V14.01,2013-03-18 17:44:00,
2013-03-18 12:49:00,40.6,37.3,29.88,WSW,249,10.0,12.0,88,0.00,,---,0.04,176.00,VWS V14.01,2013-03-18 17:49:00,
2013-03-18 12:54:00,40.9,37.3,29.88,WNW,286,3.0,9.0,87,0.00,,---,0.04,185.00,VWS V14.01,2013-03-18 17:54:00,
2013-03-18 12:58:00,41.0,37.1,29.89,West,281,2.0,15.0,86,0.00,,---,0.04,137.00,VWS V14.01,2013-03-18 17:58:00,
2013-03-18 13:03:00,41.1,36.9,29.89,WSW,242,15.0,15.0,85,0.00,,---,0.04,134.00,VWS V14.01,2013-03-18 18:03:00,
2013-03-18 13:08:00,41.1,36.6,29.89,West,281,6.0,15.0,84,0.00,,---,0.04,132.00,VWS V14.01,2013-03-18 18:08:00,
2013-03-18 13:13:00,41.3,36.8,29.89,WNW,283,2.0,9.0,84,0.00,,---,0.04,172.00,VWS V14.01,2013-03-18 18:13:00,
2013-03-18 13:18:00,41.5,36.7,29.89,West,278,10.0,12.0,83,0.00,,---,0.04,258.00,VWS V14.01,2013-03-18 18:18:00,
2013-03-18 13:23:00,41.7,36.6,29.89,WSW,254,3.0,9.0,82,0.00,,---,0.04,236.00,VWS V14.01,2013-03-18 18:23:00,
2013-03-18 13:28:00,42.0,36.9,29.89,West,268,5.0,11.0,82,0.00,,---,0.04,255.00,VWS V14.01,2013-03-18 18:28:00,
2013-03-18 13:33:00,42.3,36.9,29.89,West,276,5.0,6.0,81,0.00,,---,0.04,171.00,VWS V14.01,2013-03-18 18:33:00,
2013-03-18 13:38:00,42.5,37.1,29.89,WSW,255,11.0,13.0,81,0.00,,---,0.04,341.00,VWS V14.01,2013-03-18 18:38:00,
2013-03-18 13:43:00,42.9,37.5,29.89,WSW,257,7.0,10.0,81,0.00,,---,0.04,325.00,VWS V14.01,2013-03-18 18:43:00,
2013-03-18 13:48:00,43.7,38.0,29.89,West,276,6.0,16.0,80,0.00,,---,0.04,306.00,VWS V14.01,2013-03-18 18:48:00,
2013-03-18 13:53:00,44.3,37.9,29.89,West,279,7.0,12.0,78,0.00,,---,0.04,965.00,VWS V14.01,2013-03-18 18:53:00,
2013-03-18 13:58:00,44.6,36.8,29.89,West,280,3.0,13.0,74,0.00,,---,0.04,274.00,VWS V14.01,2013-03-18 18:58:00,
2013-03-18 14:03:00,44.9,36.8,29.89,West,260,7.0,13.0,73,0.00,,---,0.04,265.00,VWS V14.01,2013-03-18 19:03:00,
2013-03-18 14:08:00,45.1,37.0,29.89,WNW,287,5.0,12.0,73,0.00,,---,0.04,299.00,VWS V14.01,2013-03-18 19:08:00,
2013-03-18 14:13:00,45.6,37.1,29.88,WNW,299,12.0,14.0,72,0.00,,---,0.04,214.00,VWS V14.01,2013-03-18 19:13:00,
2013-03-18 14:18:00,45.8,37.0,29.88,West,275,5.0,11.0,71,0.00,,---,0.04,246.00,VWS V14.01,2013-03-18 19:18:00,
2013-03-18 14:23:00,46.2,36.6,29.88,West,269,7.0,11.0,69,0.00,,---,0.04,939.00,VWS V14.01,2013-03-18 19:23:00,
2013-03-18 14:28:00,47.2,36.8,29.87,WNW,286,6.0,12.0,67,0.00,,---,0.04,937.00,VWS V14.01,2013-03-18 19:28:00,
2013-03-18 14:33:00,47.6,36.4,29.87,WSW,253,4.0,17.0,65,0.00,,---,0.04,889.00,VWS V14.01,2013-03-18 19:33:00,
2013-03-18 14:38:00,48.1,36.5,29.87,West,279,7.0,15.0,64,0.00,,---,0.04,891.00,VWS V14.01,2013-03-18 19:38:00,
2013-03-18 14:43:00,48.4,32.5,29.87,WNW,284,11.0,25.0,54,0.00,,---,0.04,819.00,VWS V14.01,2013-03-18 19:43:00,
2013-03-18 14:48:00,48.4,31.1,29.87,West,265,8.0,14.0,51,0.00,,---,0.04,812.00,VWS V14.01,2013-03-18 19:48:00,
2013-03-18 14:53:00,48.5,30.2,29.87,WSW,252,14.0,23.0,49,0.00,,---,0.04,807.00,VWS V14.01,2013-03-18 19:53:00,
2013-03-18 14:58:00,48.1,29.9,29.88,West,264,9.0,23.0,49,0.00,,---,0.04,796.00,VWS V14.01,2013-03-18 19:58:00,
2013-03-18 15:03:00,48.0,29.8,29.88,West,263,10.0,14.0,49,0.00,,---,0.04,789.00,VWS V14.01,2013-03-18 20:03:00,
2013-03-18 15:08:00,48.4,30.1,29.88,WNW,299,13.0,16.0,49,0.00,,---,0.04,779.00,VWS V14.01,2013-03-18 20:08:00,
2013-03-18 15:13:00,48.4,30.1,29.88,West,279,11.0,17.0,49,0.00,,---,0.04,768.00,VWS V14.01,2013-03-18 20:13:00,
2013-03-18 15:18:00,48.4,30.1,29.88,West,273,13.0,15.0,49,0.00,,---,0.04,784.00,VWS V14.01,2013-03-18 20:18:00,
2013-03-18 15:23:00,48.2,30.0,29.88,West,269,4.0,14.0,49,0.00,,---,0.04,740.00,VWS V14.01,2013-03-18 20:23:00,
2013-03-18 15:28:00,48.2,30.0,29.88,West,273,4.0,16.0,49,0.00,,---,0.04,733.00,VWS V14.01,2013-03-18 20:28:00,
2013-03-18 15:33:00,48.4,30.1,29.88,West,277,4.0,18.0,49,0.00,,---,0.04,721.00,VWS V14.01,2013-03-18 20:33:00,
2013-03-18 15:38:00,48.7,30.4,29.88,WNW,296,14.0,17.0,49,0.00,,---,0.04,710.00,VWS V14.01,2013-03-18 20:38:00,
2013-03-18 15:43:00,48.7,29.9,29.88,WNW,286,8.0,19.0,48,0.00,,---,0.04,693.00,VWS V14.01,2013-03-18 20:43:00,
2013-03-18 15:48:00,48.7,29.9,29.88,WNW,291,4.0,17.0,48,0.00,,---,0.04,680.00,VWS V14.01,2013-03-18 20:48:00,
2013-03-18 15:53:00,48.7,30.9,29.88,West,276,5.0,22.0,50,0.00,,---,0.04,675.00,VWS V14.01,2013-03-18 20:53:00,
2013-03-18 15:58:00,48.7,31.4,29.89,WSW,244,11.0,15.0,51,0.00,,---,0.04,664.00,VWS V14.01,2013-03-18 20:58:00,
2013-03-18 16:03:00,49.2,31.9,29.89,NNW,340,13.0,17.0,51,0.00,,---,0.04,647.00,VWS V14.01,2013-03-18 21:03:00,
2013-03-18 16:08:00,49.1,31.8,29.89,West,260,4.0,15.0,51,0.00,,---,0.04,701.00,VWS V14.01,2013-03-18 21:08:00,
2013-03-18 16:13:00,48.9,31.6,29.89,West,280,7.0,15.0,51,0.00,,---,0.04,617.00,VWS V14.01,2013-03-18 21:13:00,
2013-03-18 16:18:00,48.7,29.9,29.89,WNW,290,7.0,21.0,48,0.00,,---,0.04,613.00,VWS V14.01,2013-03-18 21:18:00,
2013-03-18 16:23:00,48.4,30.1,29.90,West,275,5.0,13.0,49,0.00,,---,0.04,517.00,VWS V14.01,2013-03-18 21:23:00,
2013-03-18 16:28:00,48.6,29.8,29.90,West,271,9.0,14.0,48,0.00,,---,0.04,564.00,VWS V14.01,2013-03-18 21:28:00,
2013-03-18 16:33:00,48.6,30.3,29.90,NW,306,6.0,19.0,49,0.00,,---,0.04,589.00,VWS V14.01,2013-03-18 21:33:00,
2013-03-18 16:38:00,48.8,30.0,29.90,NW,308,7.0,13.0,48,0.00,,---,0.04,541.00,VWS V14.01,2013-03-18 21:38:00,
2013-03-18 16:43:00,48.8,30.5,29.90,West,273,9.0,12.0,49,0.00,,---,0.04,536.00,VWS V14.01,2013-03-18 21:43:00,
2013-03-18 16:48:00,48.8,30.5,29.90,WNW,292,14.0,19.0,49,0.00,,---,0.04,540.00,VWS V14.01,2013-03-18 21:48:00,
2013-03-18 16:53:00,48.7,29.9,29.90,NW,304,6.0,15.0,48,0.00,,---,0.04,137.00,VWS V14.01,2013-03-18 21:53:00,
2013-03-18 16:58:00,48.1,30.4,29.91,WNW,292,10.0,15.0,50,0.00,,---,0.04,392.00,VWS V14.01,2013-03-18 21:58:00,
2013-03-18 17:03:00,47.5,29.3,29.91,WNW,292,11.0,17.0,49,0.00,,---,0.04,478.00,VWS V14.01,2013-03-18 22:03:00,
2013-03-18 17:08:00,47.2,29.5,29.91,WNW,288,9.0,13.0,50,0.00,,---,0.04,443.00,VWS V14.01,2013-03-18 22:08:00,
2013-03-18 17:13:00,47.2,29.5,29.91,WSW,250,7.0,15.0,50,0.00,,---,0.04,422.00,VWS V14.01,2013-03-18 22:13:00,
2013-03-18 17:18:00,47.3,29.6,29.92,WNW,288,4.0,11.0,50,0.00,,---,0.04,427.00,VWS V14.01,2013-03-18 22:18:00,
2013-03-18 17:23:00,47.6,29.9,29.92,West,276,6.0,13.0,50,0.00,,---,0.04,390.00,VWS V14.01,2013-03-18 22:23:00,
2013-03-18 17:28:00,47.6,29.9,29.92,WNW,299,4.0,7.0,50,0.00,,---,0.04,374.00,VWS V14.01,2013-03-18 22:28:00,
2013-03-18 17:33:00,47.4,29.2,29.92,West,281,7.0,15.0,49,0.00,,---,0.04,350.00,VWS V14.01,2013-03-18 22:33:00,
2013-03-18 17:38:00,47.1,28.4,29.93,WNW,290,10.0,18.0,48,0.00,,---,0.04,320.00,VWS V14.01,2013-03-18 22:38:00,
2013-03-18 17:43:00,46.6,28.0,29.93,NW,304,11.0,13.0,48,0.00,,---,0.04,308.00,VWS V14.01,2013-03-18 22:43:00,
2013-03-18 17:48:00,46.0,27.4,29.94,WNW,294,4.0,20.0,48,0.00,,---,0.04,287.00,VWS V14.01,2013-03-18 22:48:00,
2013-03-18 17:53:00,45.6,27.1,29.94,West,281,6.0,15.0,48,0.00,,---,0.04,260.00,VWS V14.01,2013-03-18 22:53:00,
2013-03-18 17:58:00,45.4,27.9,29.94,West,263,5.0,13.0,50,0.00,,---,0.04,232.00,VWS V14.01,2013-03-18 22:58:00,
2013-03-18 18:03:00,45.1,26.6,29.95,WNW,303,7.0,17.0,48,0.00,,---,0.04,223.00,VWS V14.01,2013-03-18 23:03:00,
2013-03-18 18:08:00,44.7,26.7,29.95,WNW,303,11.0,18.0,49,0.00,,---,0.04,209.00,VWS V14.01,2013-03-18 23:08:00,
2013-03-18 18:13:00,44.3,26.4,29.95,West,281,7.0,11.0,49,0.00,,---,0.04,192.00,VWS V14.01,2013-03-18 23:13:00,
2013-03-18 18:18:00,44.0,25.6,29.95,NW,312,4.0,13.0,48,0.00,,---,0.04,176.00,VWS V14.01,2013-03-18 23:18:00,
2013-03-18 18:23:00,43.6,26.2,29.96,NNW,338,6.0,9.0,50,0.00,,---,0.04,162.00,VWS V14.01,2013-03-18 23:23:00,
2013-03-18 18:28:00,43.4,26.0,29.96,WNW,300,1.0,12.0,50,0.00,,---,0.04,139.00,VWS V14.01,2013-03-18 23:28:00,
2013-03-18 18:33:00,43.2,26.3,29.96,WNW,292,5.0,12.0,51,0.00,,---,0.04,127.00,VWS V14.01,2013-03-18 23:33:00,
2013-03-18 18:38:00,43.1,26.2,29.97,West,271,7.0,13.0,51,0.00,,---,0.04,109.00,VWS V14.01,2013-03-18 23:38:00,
2013-03-18 18:43:00,42.9,26.0,29.97,WNW,296,2.0,8.0,51,0.00,,---,0.04,93.00,VWS V14.01,2013-03-18 23:43:00,
2013-03-18 18:48:00,42.7,25.9,29.97,WNW,295,2.0,12.0,51,0.00,,---,0.04,72.00,VWS V14.01,2013-03-18 23:48:00,
2013-03-18 18:53:00,42.4,26.0,29.98,WNW,301,12.0,13.0,52,0.00,,---,0.04,56.00,VWS V14.01,2013-03-18 23:53:00,
2013-03-18 18:58:00,42.1,25.8,29.98,West,275,5.0,10.0,52,0.00,,---,0.04,37.00,VWS V14.01,2013-03-18 23:58:00,
2013-03-18 19:03:00,41.8,25.5,29.99,NW,306,4.0,10.0,52,0.00,,---,0.04,21.00,VWS V14.01,2013-03-19 00:03:00,
2013-03-18 19:08:00,41.4,25.6,29.99,WNW,292,3.0,12.0,53,0.00,,---,0.04,12.00,VWS V14.01,2013-03-19 00:08:00,
2013-03-18 19:13:00,41.1,25.7,29.99,WNW,302,6.0,15.0,54,0.00,,---,0.04,7.00,VWS V14.01,2013-03-19 00:13:00,
2013-03-18 19:18:00,40.7,25.8,30.00,WNW,303,5.0,10.0,55,0.00,,---,0.04,0.00,VWS V14.01,2013-03-19 00:18:00,
2013-03-18 19:23:00,40.2,25.8,30.00,WNW,292,7.0,13.0,56,0.00,,---,0.04,0.00,VWS V14.01,2013-03-19 00:23:00,
2013-03-18 19:28:00,39.8,25.8,30.01,NW,306,7.0,11.0,57,0.00,,---,0.04,0.00,VWS V14.01,2013-03-19 00:28:00,
2013-03-18 19:33:00,39.4,25.9,30.01,WNW,300,6.0,15.0,58,0.00,,---,0.04,0.00,VWS V14.01,2013-03-19 00:33:00,
2013-03-18 19:38:00,39.1,25.6,30.01,West,277,4.0,13.0,58,0.00,,---,0.04,0.00,VWS V14.01,2013-03-19 00:38:00,
2013-03-18 19:43:00,38.8,25.7,30.02,WNW,298,3.0,7.0,59,0.00,,---,0.04,0.00,VWS V14.01,2013-03-19 00:43:00,
2013-03-18 19:48:00,38.4,25.3,30.02,NW,310,3.0,11.0,59,0.00,,---,0.04,0.00,VWS V14.01,2013-03-19 00:48:00,
2013-03-18 19:53:00,38.1,25.1,30.03,WNW,299,3.0,13.0,59,0.00,,---,0.04,0.00,VWS V14.01,2013-03-19 00:53:00,
2013-03-18 19:58:00,37.8,25.2,30.03,NW,306,3.0,5.0,60,0.00,,---,0.04,0.00,VWS V14.01,2013-03-19 00:58:00,
2013-03-18 20:03:00,37.6,25.0,30.03,WNW,300,4.0,16.0,60,0.00,,---,0.04,0.00,VWS V14.01,2013-03-19 01:03:00,
2013-03-18 20:08:00,37.3,25.1,30.04,NW,304,6.0,10.0,61,0.00,,---,0.04,0.00,VWS V14.01,2013-03-19 01:08:00,
2013-03-18 20:13:00,37.1,24.5,30.04,WNW,302,11.0,11.0,60,0.00,,---,0.04,0.00,VWS V14.01,2013-03-19 01:13:00,
2013-03-18 20:18:00,36.9,24.7,30.05,WNW,298,4.0,11.0,61,0.00,,---,0.04,0.00,VWS V14.01,2013-03-19 01:18:00,
2013-03-18 20:23:00,36.6,24.4,30.05,NW,311,2.0,7.0,61,0.00,,---,0.04,0.00,VWS V14.01,2013-03-19 01:23:00,
2013-03-18 20:28:00,36.3,24.1,30.05,NW,321,7.0,10.0,61,0.00,,---,0.04,0.00,VWS V14.01,2013-03-19 01:28:00,
2013-03-18 20:33:00,36.1,24.0,30.06,WNW,290,4.0,9.0,61,0.00,,---,0.04,0.00,VWS V14.01,2013-03-19 01:33:00,
2013-03-18 20:38:00,35.8,23.7,30.06,NW,305,2.0,6.0,61,0.00,,---,0.04,0.00,VWS V14.01,2013-03-19 01:38:00,
2013-03-18 20:43:00,35.6,23.9,30.06,WNW,302,4.0,7.0,62,0.00,,---,0.04,0.00,VWS V14.01,2013-03-19 01:43:00,
2013-03-18 20:48:00,35.3,23.6,30.07,NW,308,4.0,9.0,62,0.00,,---,0.04,0.00,VWS V14.01,2013-03-19 01:48:00,
2013-03-18 20:53:00,35.1,23.4,30.07,WNW,285,7.0,7.0,62,0.00,,---,0.04,0.00,VWS V14.01,2013-03-19 01:53:00,
2013-03-18 20:58:00,34.9,23.2,30.07,NW,313,4.0,9.0,62,0.00,,---,0.04,0.00,VWS V14.01,2013-03-19 01:58:00,
2013-03-18 21:03:00,34.6,23.3,30.08,WNW,283,2.0,9.0,63,0.00,,---,0.04,0.00,VWS V14.01,2013-03-19 02:03:00,
2013-03-18 21:08:00,34.4,23.1,30.08,NW,306,5.0,7.0,63,0.00,,---,0.04,0.00,VWS V14.01,2013-03-19 02:08:00,
2013-03-18 21:13:00,34.4,23.1,30.08,WNW,300,2.0,9.0,63,0.00,,---,0.04,0.00,VWS V14.01,2013-03-19 02:13:00,
2013-03-18 21:18:00,34.3,23.0,30.09,WNW,286,2.0,5.0,63,0.00,,---,0.04,0.00,VWS V14.01,2013-03-19 02:18:00,
2013-03-18 21:23:00,34.0,22.7,30.09,WNW,300,9.0,9.0,63,0.00,,---,0.04,0.00,VWS V14.01,2013-03-19 02:23:00,
2013-03-18 21:28:00,33.9,22.3,30.09,WNW,290,7.0,9.0,62,0.00,,---,0.04,0.00,VWS V14.01,2013-03-19 02:28:00,
2013-03-18 21:33:00,33.8,22.2,30.10,NW,304,1.0,6.0,62,0.00,,---,0.04,0.00,VWS V14.01,2013-03-19 02:33:00,
2013-03-18 21:38:00,33.7,22.5,30.10,WNW,284,1.0,11.0,63,0.00,,---,0.04,0.00,VWS V14.01,2013-03-19 02:38:00,
2013-03-18 21:43:00,33.5,21.9,30.10,NW,309,9.0,15.0,62,0.00,,---,0.04,0.00,VWS V14.01,2013-03-19 02:43:00,
2013-03-18 21:48:00,33.4,21.8,30.10,West,273,4.0,13.0,62,0.00,,---,0.04,0.00,VWS V14.01,2013-03-19 02:48:00,
2013-03-18 21:53:00,33.4,21.8,30.11,NW,324,4.0,12.0,62,0.00,,---,0.04,0.00,VWS V14.01,2013-03-19 02:53:00,
2013-03-18 21:58:00,33.2,21.6,30.11,WNW,301,2.0,9.0,62,0.00,,---,0.04,0.00,VWS V14.01,2013-03-19 02:58:00,
2013-03-18 22:03:00,33.0,21.4,30.11,WNW,302,2.0,12.0,62,0.00,,---,0.04,0.00,VWS V14.01,2013-03-19 03:03:00,
2013-03-18 22:08:00,32.9,21.3,30.11,WNW,289,3.0,13.0,62,0.00,,---,0.04,0.00,VWS V14.01,2013-03-19 03:08:00,
2013-03-18 22:13:00,32.8,21.2,30.12,West,279,3.0,9.0,62,0.00,,---,0.04,0.00,VWS V14.01,2013-03-19 03:13:00,
2013-03-18 22:18:00,32.7,21.1,30.12,WNW,294,0.0,12.0,62,0.00,,---,0.04,0.00,VWS V14.01,2013-03-19 03:18:00,
2013-03-18 22:23:00,32.6,21.0,30.12,NW,308,2.0,6.0,62,0.00,,---,0.04,0.00,VWS V14.01,2013-03-19 03:23:00,
2013-03-18 22:28:00,32.5,20.9,30.12,WNW,298,6.0,7.0,62,0.00,,---,0.04,0.00,VWS V14.01,2013-03-19 03:28:00,
2013-03-18 22:33:00,32.4,20.9,30.13,WNW,292,4.0,9.0,62,0.00,,---,0.04,0.00,VWS V14.01,2013-03-19 03:33:00,
2013-03-18 22:38:00,32.3,20.8,30.13,WNW,284,3.0,9.0,62,0.00,,---,0.04,0.00,VWS V14.01,2013-03-19 03:38:00,
2013-03-18 22:43:00,32.2,20.7,30.13,WNW,286,6.0,11.0,62,0.00,,---,0.04,0.00,VWS V14.01,2013-03-19 03:43:00,
2013-03-18 22:48:00,32.1,20.6,30.13,West,275,2.0,9.0,62,0.00,,---,0.04,0.00,VWS V14.01,2013-03-19 03:48:00,
2013-03-18 22:53:00,32.1,20.6,30.13,WNW,299,6.0,6.0,62,0.00,,---,0.04,0.00,VWS V14.01,2013-03-19 03:53:00,
2013-03-18 22:58:00,32.0,20.5,30.13,West,278,6.0,12.0,62,0.00,,---,0.04,0.00,VWS V14.01,2013-03-19 03:58:00,
2013-03-18 23:00:00,32.0,20.5,30.13,WNW,284,6.0,12.0,62,0.00,,---,0.04,0.00,VWS V14.01,2013-03-19 04:00:00,
2013-03-18 23:05:00,31.9,20.4,30.13,WNW,289,4.0,5.0,62,0.00,,---,0.04,0.00,VWS V14.01,2013-03-19 04:05:00,
2013-03-18 23:10:00,31.9,20.8,30.14,West,273,1.0,5.0,63,0.00,,---,0.04,0.00,VWS V14.01,2013-03-19 04:10:00,
2013-03-18 23:15:00,31.8,20.7,30.14,NW,306,9.0,9.0,63,0.00,,---,0.04,0.00,VWS V14.01,2013-03-19 04:15:00,
2013-03-18 23:20:00,31.7,20.6,30.14,West,261,4.0,6.0,63,0.00,,---,0.04,0.00,VWS V14.01,2013-03-19 04:20:00,
2013-03-18 23:25:00,31.7,20.6,30.14,WNW,297,3.0,6.0,63,0.00,,---,0.04,0.00,VWS V14.01,2013-03-19 04:25:00,
2013-03-18 23:30:00,31.6,20.5,30.14,West,260,5.0,5.0,63,0.00,,---,0.04,0.00,VWS V14.01,2013-03-19 04:30:00,
2013-03-18 23:35:00,31.5,20.4,30.14,West,276,0.0,6.0,63,0.00,,---,0.04,0.00,VWS V14.01,2013-03-19 04:35:00,
2013-03-18 23:40:00,31.5,20.7,30.14,West,279,4.0,5.0,64,0.00,,---,0.04,0.00,VWS V14.01,2013-03-19 04:40:00,
2013-03-18 23:45:00,31.4,20.6,30.13,WNW,298,6.0,6.0,64,0.00,,---,0.04,0.00,VWS V14.01,2013-03-19 04:45:00,
2013-03-18 23:50:00,31.4,20.3,30.13,WNW,303,6.0,6.0,63,0.00,,---,0.04,0.00,VWS V14.01,2013-03-19 04:50:00,
2013-03-18 23:55:00,31.4,20.3,30.13,West,273,6.0,7.0,63,0.00,,---,0.04,0.00,VWS V14.01,2013-03-19 04:55:00,